Flag for Germany Weather for the Past 2 Weeks in Rotenburg (Wümme), Lower Saxony, Germany

Now
45 °F

Passing clouds.


Feels Like: 40 °F
Forecast: 40 / 51 °F
Wind: 8 mph from South

Location: Bremen Airport

Current Time: Apr 30, 2016 at 12:07:33 AM

Latest Report: Apr 29, 2016 at 11:20 PM


Visibility: N/A

Pressure: 29.98 "Hg

Humidity: 87%

Dew Point: 41 °F

Location of Rotenburg (Wümme)Location

Historic Weather in Rotenburg (Wümme) — Graph

°F

Rotenburg (Wümme) Temperature Yesterday

Maximum temperature yesterday: 54 °F (at 12:50 PM)
Minimum temperature yesterday: 34 °F (at 12:50 AM)
Average temperature yesterday: 43 °F

High & Low Weather Summary for the Past Weeks

 TemperatureHumidityPressure
High59 °F (Apr 16, 3:50 PM)100% (Apr 16, 12:50 AM)30.45 "Hg (Apr 16, 12:50 AM)
Low28 °F (Apr 25, 2:20 AM)41% (Apr 21, 2:20 PM)29.36 "Hg (Apr 26, 12:20 PM)
Average43 °F78%29.88 "Hg
* Reported Apr 14 10:20 PM — Apr 29 10:20 PM, Rotenburg (Wümme), Weather by CustomWeather, © 2016

Note: Actual official high and low records may vary slightly from our data, if they occured in-between our weather recording intervals... More about our weather records

Advertising

Rotenburg (Wümme) Weather History for the Previous 24 Hours

Scroll right to see more
 ConditionsComfort  
Time TempWeatherWind HumidityBarometerVisibility
10:20 PM
Fri, Apr 29
45 °FLight rain. Passing clouds.8 mph87%29.98 "HgN/A
9:50 PM45 °FLight rain. Partly cloudy.7 mph87%30.01 "HgN/A
9:20 PM45 °FLight rain. Partly sunny.6 mph87%30.01 "HgN/A
8:50 PM45 °FLight rain. Broken clouds.8 mph87%29.98 "HgN/A
8:20 PM45 °FLight rain. Partly sunny.7 mph87%29.98 "HgN/A
7:50 PM46 °FLight rain. Broken clouds.6 mph82%29.98 "HgN/A
7:20 PM46 °FLight rain. Partly sunny.8 mph82%29.98 "HgN/A
6:50 PM46 °FLight rain. Partly sunny.8 mph82%29.98 "HgN/A
6:20 PM46 °FLight rain. Partly sunny.10 mph82%29.98 "HgN/A
5:50 PM46 °FLight rain. Overcast.12 mph82%29.98 "HgN/A
5:20 PM46 °FLight rain. Overcast.12 mph82%29.98 "HgN/A
4:50 PM46 °FLight rain. Partly sunny.14 mph82%29.98 "HgN/A
4:20 PM48 °FLight rain. Broken clouds.14 mph76%29.95 "HgN/A
3:50 PM48 °FLight rain. Partly sunny.10 mph82%29.95 "HgN/A
3:20 PM48 °FLight rain. Mostly cloudy.10 mph82%29.95 "HgN/A
2:50 PM48 °FRain. Mostly cloudy.22 mph71%29.92 "Hg6 mi
2:20 PM52 °FLight rain. Broken clouds.16 mph62%29.92 "HgN/A
1:50 PM50 °FLight rain. Partly sunny.18 mph67%29.92 "HgN/A
1:20 PM52 °FLight rain. Partly sunny.20 mph58%29.89 "HgN/A
12:50 PM54 °FPartly sunny.21 mph51%29.89 "HgN/A
12:20 PM52 °FPartly sunny.22 mph54%29.89 "HgN/A
11:50 AM52 °FBroken clouds.21 mph54%29.89 "HgN/A
11:20 AM52 °FPartly sunny.18 mph58%29.89 "HgN/A
10:50 AM50 °FPartly sunny.20 mph62%29.89 "HgN/A
10:20 AM48 °FSunny.20 mph66%29.89 "Hg10 mi
9:50 AM48 °FSunny.20 mph66%29.89 "Hg10 mi
9:20 AM46 °FSunny.16 mph71%29.89 "Hg10 mi
8:50 AM43 °FSunny.14 mph81%29.92 "Hg10 mi
8:20 AM41 °FSunny.13 mph81%29.92 "Hg10 mi
7:50 AM39 °FSunny.10 mph87%29.92 "Hg10 mi
7:20 AM39 °FSunny.12 mph87%29.92 "Hg10 mi
6:50 AM37 °FClear.8 mph87%29.92 "Hg10 mi
6:20 AM36 °FClear.7 mph93%29.92 "Hg10 mi
5:50 AM36 °FClear.6 mph93%29.92 "Hg6 mi
5:20 AM36 °FClear.8 mph93%29.92 "Hg6 mi
4:20 AM34 °FClear.7 mph93%29.95 "Hg10 mi
3:50 AM34 °FClear.5 mph93%29.95 "Hg10 mi
3:20 AM34 °FClear.7 mph93%29.95 "Hg10 mi
2:50 AM34 °FClear.6 mph93%29.95 "Hg10 mi
2:20 AM34 °FClear.3 mph93%29.95 "Hg10 mi
1:50 AM34 °FClear.3 mph100%29.95 "Hg10 mi
1:20 AM34 °FClear.3 mph100%29.95 "Hg10 mi
12:50 AM34 °FClear.3 mph100%29.95 "Hg10 mi
12:20 AM36 °FPassing clouds.5 mph93%29.95 "HgN/A
Weather by CustomWeather, © 2016

See weather overviewHow to use our weather pages